Weather History for Fort Collins, CO

Change the Weather History Date:

Sunday, November 24, 2013

  Actual Average Record
Temperature  
Mean Temperature 27 °F -  
Max Temperature 39 °F 44 °F 68 °F (1998)
Min Temperature 15 °F 22 °F 3 °F (2003)
Degree Days  
Heating Degree Days 38    
Moisture  
Dew Point 20 °F    
Average Humidity 78    
Maximum Humidity 93    
Minimum Humidity 42    
Precipitation  
Precipitation 0.02 in - - ()
Sea Level Pressure  
Sea Level Pressure 30.07 in    
Wind  
Wind Speed 4 mph (North)    
Max Wind Speed 16 mph    
Max Gust Speed -    
Visibility 8 miles    
Events      
Averages and records for this station are not official NWS values.
T = Trace of Precipitation, MM = Missing Value Source: NWS Daily Summary

Daily Weather History Graph

Daily Weather History Graph

Search for Another Location

Airport:

Trip Planner

Search our weather history database for the weather conditions in past years. The results will help you decide how hot, cold, wet, or windy it might be!

Date:

Astronomy

Nov. 24, 2013 Rise Set
Actual Time 6:56 AM MST 4:36 PM MST
Civil Twilight 6:26 AM MST 5:06 PM MST
Nautical Twilight 5:53 AM MST 5:39 PM MST
Astronomical Twilight 5:20 AM MST 6:12 PM MST
Moon 11:05 PM MST (11/24) 11:45 AM MST (11/24)
Length of Visible Light 10h 39m
Length of Day
9h 39m
Waning Gibbous, 60% of the Moon is Illuminated
Nov 24
Waning Gibbous
Nov 25
Last Quarter
Dec 2
New
Dec 9
First Quarter
Dec 17
Full

Hourly Weather History & Observations

Time (MST) Temp. Windchill Dew Point Humidity Pressure Visibility Wind Dir Wind Speed Gust Speed Precip Events Conditions
12:15 AM 21.2 °F 13.6 °F 17.6 °F 86% 30.29 in 10.0 mi North 5.8 mph - N/A   Clear
12:35 AM 21.2 °F 14.9 °F 17.6 °F 86% 30.28 in 10.0 mi North 4.6 mph - N/A   Partly Cloudy
12:55 AM 23.0 °F 15.8 °F 19.4 °F 86% 30.28 in 10.0 mi North 5.8 mph - N/A   Clear
1:15 AM 24.8 °F 16.9 °F 19.4 °F 80% 30.26 in 10.0 mi North 6.9 mph - N/A   Clear
1:35 AM 24.8 °F 16.9 °F 19.4 °F 80% 30.25 in 10.0 mi North 6.9 mph - N/A   Clear
1:55 AM 24.8 °F 17.9 °F 19.4 °F 80% 30.24 in 10.0 mi North 5.8 mph - N/A   Clear
2:15 AM 23.0 °F 15.8 °F 17.6 °F 80% 30.23 in 10.0 mi North 5.8 mph - N/A   Clear
2:35 AM 21.2 °F 14.9 °F 17.6 °F 86% 30.22 in 10.0 mi North 4.6 mph - N/A   Clear
2:55 AM 21.2 °F 16.4 °F 17.6 °F 86% 30.21 in 10.0 mi North 3.5 mph - N/A   Clear
3:15 AM 21.2 °F 16.4 °F 17.6 °F 86% 30.21 in 10.0 mi North 3.5 mph - N/A   Clear
3:35 AM 21.2 °F 16.4 °F 17.6 °F 86% 30.20 in 10.0 mi North 3.5 mph - N/A   Clear
3:55 AM 19.4 °F 11.5 °F 17.6 °F 93% 30.18 in 8.0 mi North 5.8 mph - N/A   Clear
4:15 AM 19.4 °F 10.4 °F 17.6 °F 93% 30.17 in 8.0 mi North 6.9 mph - N/A   Clear
4:35 AM 21.2 °F 12.6 °F 17.6 °F 86% 30.17 in 7.0 mi NNE 6.9 mph - N/A   Clear
4:55 AM 21.2 °F 12.6 °F 17.6 °F 86% 30.17 in 7.0 mi NNE 6.9 mph - N/A   Clear
5:15 AM 19.4 °F 14.3 °F 15.8 °F 86% 30.17 in 8.0 mi NNE 3.5 mph - N/A   Clear
5:35 AM 15.8 °F 6.1 °F 12.2 °F 86% 30.16 in 5.0 mi NNW 6.9 mph - N/A   Clear
5:55 AM 17.6 °F 7.3 °F 15.8 °F 93% 30.14 in 5.0 mi NNW 8.1 mph - N/A   Clear
6:15 AM 19.4 °F 11.5 °F 15.8 °F 86% 30.14 in 8.0 mi North 5.8 mph - N/A   Clear
6:35 AM 19.4 °F 9.5 °F 17.6 °F 93% 30.13 in 8.0 mi North 8.1 mph - N/A   Clear
6:55 AM 19.4 °F 9.5 °F 17.6 °F 93% 30.12 in 6.0 mi North 8.1 mph - N/A   Clear
7:15 AM 19.4 °F 8.6 °F 17.6 °F 93% 30.12 in 5.0 mi North 9.2 mph - N/A   Clear
7:35 AM 19.4 °F 8.6 °F 17.6 °F 93% 30.11 in 5.0 mi North 9.2 mph - N/A   Clear
7:55 AM 21.2 °F 13.6 °F 17.6 °F 86% 30.11 in 5.0 mi NNE 5.8 mph - N/A   Clear
8:15 AM 21.2 °F - 17.6 °F 86% 30.12 in 5.0 mi Calm Calm - N/A   Clear
8:35 AM 19.4 °F - 15.8 °F 86% 30.12 in 4.0 mi Calm Calm - N/A   Clear
8:55 AM 19.4 °F - 17.6 °F 93% 30.11 in 5.0 mi Calm Calm - N/A   Clear
9:15 AM 21.2 °F - 17.6 °F 86% 30.10 in 5.0 mi Calm Calm - N/A   Clear
9:35 AM 21.2 °F - 19.4 °F 93% 30.10 in 7.0 mi Calm Calm - N/A   Clear
9:55 AM 23.0 °F - 19.4 °F 86% 30.10 in 7.0 mi Calm Calm - N/A   Clear
10:15 AM 24.8 °F - 19.4 °F 80% 30.09 in 7.0 mi Calm Calm - N/A   Clear
10:35 AM 24.8 °F - 19.4 °F 80% 30.09 in 7.0 mi Calm Calm - N/A   Clear
10:55 AM 24.8 °F - 19.4 °F 80% 30.07 in 7.0 mi Calm Calm - N/A   Clear
11:15 AM 26.6 °F - 21.2 °F 80% 30.06 in 8.0 mi Calm Calm - N/A   Clear
11:35 AM 30.2 °F - 21.2 °F 69% 30.05 in 8.0 mi Calm Calm - 0.01 in   Clear
11:55 AM 30.2 °F - 21.2 °F 69% 30.03 in 8.0 mi Calm Calm - 0.01 in   Clear
12:15 PM 30.2 °F - 19.4 °F 64% 30.03 in 10.0 mi Calm Calm - N/A   Clear
12:35 PM 28.4 °F - 21.2 °F 74% 30.02 in 10.0 mi Calm Calm - N/A   Clear
12:55 PM 30.2 °F - 21.2 °F 69% 30.01 in 10.0 mi Calm Calm - N/A   Clear
1:15 PM 30.2 °F - 21.2 °F 69% 30.01 in 10.0 mi Calm Calm - 0.01 in   Clear
1:35 PM 30.2 °F - 21.2 °F 69% 30.00 in 10.0 mi Calm Calm - 0.01 in   Clear
1:55 PM 30.2 °F - 21.2 °F 69% 30.00 in 10.0 mi Calm Calm - 0.01 in   Clear
2:15 PM 30.2 °F - 19.4 °F 64% 29.99 in 10.0 mi Calm Calm - N/A   Clear
2:35 PM 30.2 °F - 21.2 °F 69% 29.98 in 10.0 mi Calm Calm - N/A   Clear
2:55 PM 30.2 °F - 21.2 °F 69% 29.98 in 10.0 mi Calm Calm - N/A   Clear
3:15 PM 30.2 °F - 21.2 °F 69% 29.98 in 10.0 mi Calm Calm - N/A   Clear
3:35 PM 30.2 °F - 21.2 °F 69% 29.98 in 10.0 mi Calm Calm - N/A   Clear
3:55 PM 30.2 °F - 21.2 °F 69% 29.98 in 10.0 mi Calm Calm - N/A   Clear
4:15 PM 28.4 °F - 19.4 °F 69% 29.98 in 10.0 mi Calm Calm - N/A   Clear
4:35 PM 26.6 °F 21.2 °F 19.4 °F 74% 29.97 in 8.0 mi South 4.6 mph - N/A   Clear
4:55 PM 26.6 °F 22.6 °F 21.2 °F 80% 29.98 in 9.0 mi South 3.5 mph - N/A   Clear
5:15 PM 28.4 °F - 21.2 °F 74% 29.97 in 10.0 mi Calm Calm - N/A   Partly Cloudy
5:35 PM 28.4 °F - 21.2 °F 74% 29.98 in 10.0 mi Calm Calm - N/A   Mostly Cloudy
5:55 PM 28.4 °F - 21.2 °F 74% 29.99 in 10.0 mi Calm Calm - N/A   Overcast
6:15 PM 28.4 °F - 23.0 °F 80% 29.99 in 10.0 mi Calm Calm - N/A   Overcast
6:35 PM 28.4 °F - 23.0 °F 80% 29.98 in 10.0 mi Calm Calm - N/A   Mostly Cloudy
6:55 PM 26.6 °F - 21.2 °F 80% 29.98 in 9.0 mi Calm Calm - N/A   Partly Cloudy
7:15 PM 24.8 °F - 19.4 °F 80% 29.98 in 7.0 mi Calm Calm - N/A   Clear
7:35 PM 26.6 °F - 21.2 °F 80% 29.98 in 9.0 mi Calm Calm - N/A   Clear
7:55 PM 26.6 °F - 21.2 °F 80% 29.98 in 7.0 mi Calm Calm - N/A   Clear
8:15 PM 26.6 °F - 23.0 °F 86% 29.99 in 7.0 mi Calm Calm - N/A   Clear
8:35 PM 26.6 °F - 23.0 °F 86% 29.99 in 6.0 mi Calm Calm - N/A   Clear
8:55 PM 28.4 °F - 24.8 °F 86% 29.99 in 5.0 mi Calm Calm - N/A   Partly Cloudy
9:15 PM 28.4 °F - 24.8 °F 86% 29.99 in 8.0 mi Calm Calm - N/A   Partly Cloudy
9:35 PM 28.4 °F - 23.0 °F 80% 29.98 in 8.0 mi Calm Calm - N/A   Clear
9:55 PM 30.2 °F 24.3 °F 24.8 °F 80% 29.98 in 9.0 mi NNW 5.8 mph - N/A   Clear
10:15 PM 33.8 °F 26.4 °F 19.4 °F 56% 29.99 in 10.0 mi North 9.2 mph - N/A   Clear
10:35 PM 35.6 °F 26.6 °F 19.4 °F 52% 30.00 in 10.0 mi NNW 13.8 mph - N/A   Clear
10:55 PM 37.4 °F 28.2 °F 17.6 °F 45% 30.01 in 10.0 mi NNW 16.1 mph - N/A   Partly Cloudy
11:15 PM 39.2 °F 30.8 °F 17.6 °F 42% 30.02 in 10.0 mi North 15.0 mph - N/A   Mostly Cloudy
11:35 PM 39.2 °F 31.2 °F 17.6 °F 42% 30.03 in 10.0 mi North 13.8 mph - N/A   Overcast
11:55 PM 37.4 °F 29.3 °F 17.6 °F 45% 30.03 in 10.0 mi North 12.7 mph - N/A   Mostly Cloudy